Location: D�pe
(52.6057°N, 8.1808°E)
Time: 07:43:49
(UTC+00:00)

FALCON 9 DEB - Pass Details

Date: 29 October 2020
Orbit: 377 x 396 km, 53.0° (Epoch: 01 December)

Event Time Altitude Azimuth Distance (km) Brightness Sun altitude
Rises 16:48:53 0° 228° (SW) 2,306 8.0 -7.6°
Reaches altitude 10° 16:51:03 10° 220° (SW) 1,448 6.6 -7.9°
Maximum altitude 16:54:03 36° 152° (SSE) 651 3.9 -8.4°
Enters shadow 16:56:42 12° 86° (E) 1,309 4.9 -8.8°
